{"data":{"norad_id":67855,"intl_designator":"2026-034F","name":"STARLINK-36838","alt_names":[],"object_type":"PAYLOAD","status":"ACTIVE","operator":null,"country":"US","launch_date":"2026-02-20","launch_site_code":"AFETR","launch_vehicle":null,"mission":null,"orbit_class":"UNKNOWN","rcs_meters":null,"size_class":null,"mass_kg":null,"dimensions":null,"purposes":["comms"],"wikipedia_slug":null,"has_3d_model":false,"image_url":null,"decayed_at":null,"tle_current":{"epoch":"2026-05-25T04:58:33.013056Z","epoch_age_seconds":60426,"freshness":"FRESH","line1":"1 67855U 26034F   26145.20732654  .00010733  00000+0  37400-3 0  9993","line2":"2 67855  53.1566 208.6304 0001189  86.6676 273.4461 15.30198794 15752","mean_motion":15.30198794,"eccentricity":0.0001189,"inclination_deg":53.1566,"raan_deg":208.6304,"arg_perigee_deg":86.6676,"mean_anomaly_deg":273.4461,"bstar":0.000374,"rev_number":1575,"period_min":94.105419873962,"perigee_km":474.4038063311,"apogee_km":476.03353430951,"semimajor_km":6853.3556703203,"source":"CELESTRAK","updated_at":"2026-05-25T13:38:21.725651Z"}}}